Hourly Weather Agidel'

Today, 7 March, Sunday

Time Temperature Precipitation Wind Pressure Humidity
00:00 -18°C° 0 mm 2 mps 752 mmHg 96%
01:00 -19°C° 0 mm 2 mps 751 mmHg 97%
02:00 -18°C° 0 mm 2 mps 751 mmHg 97%
03:00 -18°C° 0 mm 2 mps 751 mmHg 97%
04:00 -18°C° 0 mm 2 mps 751 mmHg 97%
05:00 -18°C° 0 mm 2 mps 751 mmHg 97%
06:00 -18°C° 0 mm 2 mps 750 mmHg 96%
07:00 -18°C° 0 mm 2 mps 750 mmHg 96%
08:00 -17°C° 0 mm 2 mps 750 mmHg 95%
09:00 -16°C° 0 mm 2 mps 750 mmHg 94%
10:00 -15°C° 0 mm 2 mps 750 mmHg 93%
11:00 -15°C° 0 mm 2 mps 750 mmHg 92%
12:00 -14°C° 0 mm 2 mps 750 mmHg 90%
13:00 -13°C° 0 mm 2 mps 750 mmHg 89%
14:00 -13°C° 0 mm 2 mps 750 mmHg 90%
15:00 -13°C° 0 mm 2 mps 750 mmHg 90%
16:00 -12°C° 0 mm 2 mps 749 mmHg 92%
17:00 -14°C° 0 mm 2 mps 749 mmHg 93%
18:00 -15°C° 0 mm 2 mps 749 mmHg 94%
19:00 -16°C° 0 mm 2 mps 749 mmHg 96%
20:00 -17°C° 0 mm 3 mps 749 mmHg 96%
21:00 -18°C° 0 mm 3 mps 749 mmHg 95%
22:00 -18°C° 0 mm 3 mps 749 mmHg 95%
23:00 -17°C° 0 mm 3 mps 748 mmHg 94%

Tomorrow, 8 March, Monday

Time Temperature Precipitation Wind Pressure Humidity
00:00 -18°C° 0 mm 4 mps 747 mmHg 93%
01:00 -17°C° 0 mm 4 mps 747 mmHg 92%
02:00 -17°C° 0.1 mm 5 mps 746 mmHg 93%
03:00 -15°C° 0.1 mm 5 mps 745 mmHg 93%
04:00 -16°C° 0.1 mm 6 mps 744 mmHg 94%
05:00 -15°C° 0.3 mm 6 mps 744 mmHg 93%
06:00 -15°C° 0.3 mm 6 mps 743 mmHg 93%
07:00 -14°C° 0.3 mm 6 mps 742 mmHg 92%
08:00 -13°C° 0.2 mm 7 mps 741 mmHg 92%
09:00 -12°C° 0.2 mm 7 mps 741 mmHg 93%
10:00 -10°C° 0.2 mm 8 mps 740 mmHg 93%
11:00 -8°C° 0.3 mm 8 mps 740 mmHg 89%
12:00 -8°C° 0.3 mm 9 mps 740 mmHg 84%
13:00 -6°C° 0.3 mm 9 mps 739 mmHg 79%
14:00 -8°C° 0 mm 9 mps 740 mmHg 78%
15:00 -8°C° 0 mm 8 mps 740 mmHg 77%
16:00 -8°C° 0 mm 7 mps 741 mmHg 76%
17:00 -10°C° 0 mm 6 mps 741 mmHg 79%
18:00 -11°C° 0 mm 6 mps 742 mmHg 82%
19:00 -12°C° 0 mm 5 mps 743 mmHg 86%
20:00 -12°C° 0 mm 4 mps 743 mmHg 87%
21:00 -12°C° 0 mm 4 mps 743 mmHg 89%
22:00 -13°C° 0 mm 3 mps 743 mmHg 91%
23:00 -13°C° 0.1 mm 3 mps 743 mmHg 92%

Day after tomorrow, 9 March, Tuesday

Time Temperature Precipitation Wind Pressure Humidity
00:00 -12°C° 0.1 mm 2 mps 743 mmHg 94%
01:00 -10°C° 0.1 mm 1 mps 743 mmHg 95%
02:00 -10°C° 0.9 mm 2 mps 743 mmHg 95%
03:00 -12°C° 0.9 mm 3 mps 744 mmHg 94%
04:00 -10°C° 0.9 mm 3 mps 744 mmHg 94%
05:00 -13°C° 0 mm 3 mps 745 mmHg 94%
06:00 -16°C° 0 mm 4 mps 745 mmHg 94%
07:00 -18°C° 0 mm 4 mps 746 mmHg 94%
08:00 -17°C° 0 mm 4 mps 747 mmHg 94%
09:00 -17°C° 0 mm 4 mps 748 mmHg 93%
10:00 -16°C° 0 mm 4 mps 749 mmHg 93%
11:00 -14°C° 0 mm 3 mps 749 mmHg 93%
12:00 -13°C° 0 mm 3 mps 750 mmHg 92%
13:00 -12°C° 0 mm 3 mps 750 mmHg 91%
14:00 -12°C° 0 mm 3 mps 750 mmHg 91%
15:00 -10°C° 0 mm 2 mps 750 mmHg 91%
16:00 -10°C° 0 mm 2 mps 750 mmHg 91%
17:00 -12°C° 0 mm 2 mps 750 mmHg 93%
18:00 -12°C° 0 mm 1 mps 750 mmHg 94%
19:00 -14°C° 0 mm 1 mps 750 mmHg 96%
20:00 -14°C° 0 mm 1 mps 750 mmHg 97%
21:00 -15°C° 0 mm 0 mps 750 mmHg 98%
22:00 -16°C° 0 mm 0 mps 750 mmHg 99%
23:00 -16°C° 0 mm 0 mps 750 mmHg 98%

10 March, Wednesday

Time Temperature Precipitation Wind Pressure Humidity
00:00 -15°C° 0 mm 1 mps 749 mmHg 98%
01:00 -15°C° 0 mm 1 mps 749 mmHg 97%
02:00 -15°C° 0 mm 1 mps 749 mmHg 97%
03:00 -17°C° 0 mm 2 mps 748 mmHg 96%
04:00 -17°C° 0 mm 2 mps 748 mmHg 96%
05:00 -18°C° 0 mm 3 mps 748 mmHg 95%
06:00 -18°C° 0 mm 4 mps 748 mmHg 95%
07:00 -18°C° 0 mm 4 mps 748 mmHg 94%
08:00 -20°C° 0.1 mm 5 mps 748 mmHg 94%
09:00 -22°C° 0.1 mm 6 mps 748 mmHg 93%
10:00 -22°C° 0.1 mm 6 mps 748 mmHg 93%
11:00 -22°C° 0 mm 6 mps 749 mmHg 91%
12:00 -23°C° 0 mm 6 mps 749 mmHg 90%
13:00 -24°C° 0 mm 7 mps 749 mmHg 88%
14:00 -23°C° 0 mm 6 mps 750 mmHg 87%
15:00 -23°C° 0 mm 6 mps 750 mmHg 85%
16:00 -23°C° 0 mm 6 mps 751 mmHg 83%
17:00 -23°C° 0 mm 6 mps 751 mmHg 84%
18:00 -22°C° 0 mm 5 mps 752 mmHg 84%
19:00 -24°C° 0 mm 5 mps 752 mmHg 84%
20:00 -24°C° 0 mm 5 mps 753 mmHg 85%
21:00 -25°C° 0 mm 5 mps 753 mmHg 86%
22:00 -25°C° 0 mm 5 mps 754 mmHg 87%
23:00 -26°C° 0 mm 4 mps 754 mmHg 89%

11 March, Thursday

Time Temperature Precipitation Wind Pressure Humidity
00:00 -27°C° 0 mm 4 mps 754 mmHg 90%
01:00 -29°C° 0 mm 4 mps 754 mmHg 91%
02:00 -29°C° 0 mm 4 mps 754 mmHg 91%
03:00 -30°C° 0 mm 4 mps 755 mmHg 92%
04:00 -30°C° 0 mm 4 mps 755 mmHg 93%
05:00 -30°C° 0 mm 4 mps 755 mmHg 93%
06:00 -30°C° 0 mm 3 mps 756 mmHg 94%
07:00 -30°C° 0 mm 3 mps 756 mmHg 94%
08:00 -29°C° 0 mm 3 mps 757 mmHg 94%
09:00 -27°C° 0 mm 3 mps 757 mmHg 94%
10:00 -26°C° 0 mm 3 mps 757 mmHg 94%
11:00 -25°C° 0 mm 3 mps 757 mmHg 93%
12:00 -25°C° 0 mm 4 mps 758 mmHg 93%
13:00 -23°C° 0 mm 4 mps 758 mmHg 92%
14:00 -22°C° 0 mm 4 mps 758 mmHg 92%
15:00 -20°C° 0 mm 4 mps 758 mmHg 92%
16:00 -19°C° 0 mm 4 mps 758 mmHg 92%
17:00 -19°C° 0 mm 4 mps 758 mmHg 92%
18:00 -19°C° 0 mm 4 mps 758 mmHg 93%
19:00 -18°C° 0 mm 3 mps 759 mmHg 94%
20:00 -18°C° 0 mm 3 mps 759 mmHg 94%
21:00 -19°C° 0 mm 4 mps 759 mmHg 94%
22:00 -19°C° 0 mm 4 mps 760 mmHg 94%
23:00 -18°C° 0 mm 4 mps 760 mmHg 94%

12 March, Friday

Time Temperature Precipitation Wind Pressure Humidity
00:00 -17°C° 0 mm 3 mps 760 mmHg 95%
01:00 -16°C° 0 mm 3 mps 761 mmHg 95%
02:00 -17°C° 0 mm 3 mps 761 mmHg 94%
03:00 -17°C° 0 mm 3 mps 762 mmHg 94%
04:00 -17°C° 0 mm 3 mps 762 mmHg 93%
05:00 -19°C° 0 mm 3 mps 762 mmHg 93%
06:00 -21°C° 0 mm 3 mps 763 mmHg 93%
07:00 -22°C° 0 mm 3 mps 764 mmHg 93%
08:00 -21°C° 0 mm 3 mps 764 mmHg 92%
09:00 -18°C° 0 mm 3 mps 764 mmHg 90%
10:00 -17°C° 0 mm 3 mps 765 mmHg 89%
11:00 -15°C° 0 mm 3 mps 765 mmHg 88%
12:00 -15°C° 0 mm 4 mps 765 mmHg 87%
13:00 -12°C° 0 mm 4 mps 765 mmHg 85%
14:00 -12°C° 0 mm 4 mps 765 mmHg 85%
15:00 -10°C° 0 mm 3 mps 765 mmHg 84%
16:00 -10°C° 0 mm 3 mps 765 mmHg 84%
17:00 -12°C° 0 mm 3 mps 765 mmHg 86%
18:00 -14°C° 0 mm 3 mps 765 mmHg 87%
19:00 -15°C° 0 mm 3 mps 765 mmHg 89%
20:00 -16°C° 0 mm 3 mps 766 mmHg 89%
21:00 -17°C° 0 mm 3 mps 766 mmHg 89%
22:00 -18°C° 0 mm 3 mps 766 mmHg 89%
23:00 -18°C° 0 mm 3 mps 766 mmHg 90%
Show more